TimeEDT,TemperatureF,Dew PointF,Humidity,Sea Level PressureIn,VisibilityMPH,Wind Direction,Wind SpeedMPH,Gust SpeedMPH,PrecipitationIn,Events,Conditions,WindDirDegrees,DateUTC
12:00 AM,59.0,50.0,72,30.16,10.0,WSW,8.1,-,N/A,,Clear,240,2012-10-24 04:00:00
12:20 AM,60.8,50.0,68,30.16,10.0,WSW,8.1,-,N/A,,Clear,240,2012-10-24 04:20:00
12:40 AM,60.8,50.0,68,30.16,10.0,WSW,6.9,-,N/A,,Clear,240,2012-10-24 04:40:00
1:25 AM,59.0,51.8,77,30.16,10.0,SW,5.8,-,N/A,,Clear,230,2012-10-24 05:25:00
2:05 AM,59.0,51.8,77,30.16,10.0,WSW,6.9,-,N/A,,Clear,240,2012-10-24 06:05:00
2:30 AM,59.0,51.8,77,30.16,10.0,WSW,6.9,-,N/A,,Clear,240,2012-10-24 06:30:00
2:50 AM,60.8,51.8,72,30.16,10.0,WSW,8.1,-,N/A,,Scattered Clouds,240,2012-10-24 06:50:00
3:10 AM,60.8,51.8,72,30.16,10.0,WSW,8.1,-,N/A,,Scattered Clouds,250,2012-10-24 07:10:00
3:30 AM,60.8,50.0,68,30.16,10.0,WSW,8.1,-,N/A,,Scattered Clouds,250,2012-10-24 07:30:00
3:55 AM,60.8,50.0,68,30.16,10.0,WSW,8.1,-,N/A,,Clear,250,2012-10-24 07:55:00
4:15 AM,60.8,50.0,68,30.17,10.0,WSW,6.9,-,N/A,,Scattered Clouds,250,2012-10-24 08:15:00
4:35 AM,60.8,50.0,68,30.17,10.0,West,8.1,-,N/A,,Overcast,260,2012-10-24 08:35:00
4:55 AM,60.8,50.0,68,30.17,10.0,West,6.9,-,N/A,,Mostly Cloudy,260,2012-10-24 08:55:00
5:20 AM,59.0,50.0,72,30.18,10.0,WSW,5.8,-,N/A,,Mostly Cloudy,250,2012-10-24 09:20:00
5:40 AM,59.0,50.0,72,30.18,10.0,West,6.9,-,N/A,,Overcast,260,2012-10-24 09:40:00
6:00 AM,59.0,50.0,72,30.18,10.0,West,3.5,-,N/A,,Overcast,260,2012-10-24 10:00:00
6:20 AM,59.0,50.0,72,30.19,10.0,WSW,4.6,-,N/A,,Overcast,250,2012-10-24 10:20:00
6:45 AM,59.0,50.0,72,30.19,10.0,WSW,5.8,-,N/A,,Overcast,250,2012-10-24 10:45:00
8:30 AM,59.0,50.0,72,30.22,10.0,West,6.9,-,N/A,,Overcast,270,2012-10-24 12:30:00
8:50 AM,59.0,50.0,72,30.22,10.0,West,8.1,-,N/A,,Scattered Clouds,280,2012-10-24 12:50:00
9:10 AM,59.0,48.2,67,30.22,10.0,West,9.2,-,N/A,,Mostly Cloudy,280,2012-10-24 13:10:00
9:55 AM,60.8,50.0,68,30.23,10.0,West,5.8,-,N/A,,Mostly Cloudy,270,2012-10-24 13:55:00
11:00 AM,62.6,50.0,63,30.22,10.0,WNW,6.9,-,N/A,,Overcast,290,2012-10-24 15:00:00
11:20 AM,62.6,48.2,59,30.22,10.0,WSW,4.6,-,N/A,,Overcast,240,2012-10-24 15:20:00
11:40 AM,62.6,46.4,55,30.22,10.0,West,6.9,-,N/A,,Overcast,260,2012-10-24 15:40:00
12:00 PM,62.6,48.2,59,30.22,10.0,West,9.2,-,N/A,,Overcast,260,2012-10-24 16:00:00
12:25 PM,62.6,48.2,59,30.22,10.0,WSW,10.4,-,N/A,,Overcast,250,2012-10-24 16:25:00
12:45 PM,64.4,50.0,59,30.20,10.0,WSW,9.2,-,N/A,,Overcast,250,2012-10-24 16:45:00
1:05 PM,64.4,50.0,59,30.19,10.0,WSW,9.2,-,N/A,,Overcast,250,2012-10-24 17:05:00
1:25 PM,64.4,48.2,56,30.19,10.0,West,9.2,18.4,N/A,,Overcast,260,2012-10-24 17:25:00
1:50 PM,64.4,50.0,59,30.18,10.0,West,6.9,-,N/A,,Overcast,270,2012-10-24 17:50:00
2:10 PM,66.2,50.0,56,30.18,10.0,West,9.2,-,N/A,,Mostly Cloudy,260,2012-10-24 18:10:00
2:30 PM,68.0,48.2,49,30.17,10.0,WSW,8.1,-,N/A,,Scattered Clouds,250,2012-10-24 18:30:00
2:50 PM,68.0,48.2,49,30.17,10.0,WSW,9.2,-,N/A,,Scattered Clouds,240,2012-10-24 18:50:00
3:15 PM,68.0,48.2,49,30.16,10.0,WSW,6.9,-,N/A,,Clear,250,2012-10-24 19:15:00
3:35 PM,68.0,46.4,46,30.16,10.0,WSW,6.9,-,N/A,,Clear,250,2012-10-24 19:35:00
3:55 PM,68.0,48.2,49,30.16,10.0,West,8.1,-,N/A,,Scattered Clouds,260,2012-10-24 19:55:00
4:15 PM,68.0,48.2,49,30.16,10.0,West,8.1,-,N/A,,Scattered Clouds,260,2012-10-24 20:15:00
4:40 PM,68.0,48.2,49,30.16,10.0,West,4.6,-,N/A,,Clear,260,2012-10-24 20:40:00
5:00 PM,68.0,46.4,46,30.17,10.0,WSW,5.8,-,N/A,,Mostly Cloudy,250,2012-10-24 21:00:00
5:20 PM,68.0,46.4,46,30.17,10.0,WSW,6.9,-,N/A,,Scattered Clouds,250,2012-10-24 21:20:00
5:40 PM,66.2,46.4,49,30.17,10.0,SW,3.5,-,N/A,,Scattered Clouds,230,2012-10-24 21:40:00
6:05 PM,64.4,46.4,52,30.17,10.0,WSW,4.6,-,N/A,,Clear,250,2012-10-24 22:05:00
6:25 PM,62.6,48.2,59,30.17,10.0,WSW,3.5,-,N/A,,Clear,240,2012-10-24 22:25:00
6:45 PM,62.6,46.4,55,30.18,10.0,SW,3.5,-,N/A,,Clear,230,2012-10-24 22:45:00
7:05 PM,62.6,46.4,55,30.18,10.0,SW,4.6,-,N/A,,Clear,230,2012-10-24 23:05:00
7:30 PM,62.6,46.4,55,30.18,10.0,SW,4.6,-,N/A,,Clear,230,2012-10-24 23:30:00
7:50 PM,60.8,46.4,59,30.19,10.0,SW,4.6,-,N/A,,Clear,230,2012-10-24 23:50:00
8:30 PM,60.8,46.4,59,30.19,10.0,SW,4.6,-,N/A,,Clear,220,2012-10-25 00:30:00
8:55 PM,60.8,46.4,59,30.19,10.0,SW,4.6,-,N/A,,Clear,220,2012-10-25 00:55:00
9:15 PM,60.8,46.4,59,30.19,10.0,SW,3.5,-,N/A,,Clear,230,2012-10-25 01:15:00
9:35 PM,60.8,46.4,59,30.19,10.0,SSW,3.5,-,N/A,,Clear,200,2012-10-25 01:35:00
9:55 PM,60.8,46.4,59,30.20,10.0,SW,3.5,-,N/A,,Clear,220,2012-10-25 01:55:00
10:20 PM,60.8,46.4,59,30.20,10.0,Calm,Calm,-,N/A,,Clear,0,2012-10-25 02:20:00
10:40 PM,60.8,46.4,59,30.20,10.0,South,3.5,-,N/A,,Clear,170,2012-10-25 02:40:00
11:00 PM,60.8,46.4,59,30.20,10.0,SE,3.5,-,N/A,,Clear,140,2012-10-25 03:00:00
11:25 PM,60.8,46.4,59,30.20,10.0,Calm,Calm,-,N/A,,Clear,0,2012-10-25 03:25:00
11:45 PM,60.8,46.4,59,30.20,10.0,South,3.5,-,N/A,,Clear,190,2012-10-25 03:45:00